Location: *
(17.3280°S, 114.7300°W)
Time: 06:38:47
(UTC+00:00)

NOSS 3-4 (C) - Pass Details

Date: 05 August 2020
Orbit: 885 x 1327 km, 63.4° (Epoch: 19 September)

Event Time Altitude Azimuth Distance (km) Brightness Sun altitude
Exits shadow 13:08:12 - 214° (SW) 2,983 5.6 -13.4°
Reaches altitude 10° 13:08:50 10° 216° (SW) 2,750 5.4 -13.2°
Maximum altitude 13:15:01 56° 292° (WNW) 1,090 3.5 -11.8°
Drops below altitude 10° 13:20:46 10° 9° (N) 2,550 6.0 -10.5°
Sets 13:23:14 0° 14° (NNE) 3,471 6.8 -9.9°
